RYR4787 LIRI-LIME

Flight info

Callsign RYR4787
Flight time 1h 12m
Altitude 34000
Route SOR DCT ALAXI DCT INSOX DCT AMTEL DCT LOMED DCT IPLUB DCT OSBUL
Aircraft B738/M-SDE3FGILRWY/SB1

Departure

Time 2026-04-28 20:08
Airport Salerno Costa d'Amalfi Airport (LIRI)

Arrival

Time 2026-04-28 21:21
Airport Il Caravaggio International Airport (LIME)
Time Latitude Longitude Altitude Speed Heading
2026-04-28 19:50 40.62132 14.92058 84 ft 0 kts 140°
2026-04-28 20:01 40.62129 14.92057 83 ft 1 kts 173°
2026-04-28 20:01 40.62128 14.92047 83 ft 1 kts 272°
2026-04-28 20:01 40.62153 14.92029 85 ft 8 kts 331°
2026-04-28 20:02 40.62211 14.91986 83 ft 10 kts 338°
2026-04-28 20:02 40.62266 14.91935 85 ft 10 kts 314°
2026-04-28 20:02 40.62275 14.91920 83 ft 0 kts 305°
2026-04-28 20:06 40.62275 14.91919 83 ft 1 kts 304°
2026-04-28 20:07 40.62289 14.91874 85 ft 9 kts 287°
2026-04-28 20:07 40.62301 14.91817 85 ft 10 kts 285°
2026-04-28 20:07 40.62292 14.91748 86 ft 0 kts 228°
2026-04-28 20:08 40.62258 14.91695 84 ft 35 kts 232°
2026-04-28 20:08 40.61944 14.91168 86 ft 109 kts 232°
2026-04-28 20:08 40.61348 14.90159 168 ft 160 kts 232°
2026-04-28 20:08 40.60654 14.89000 848 ft 166 kts 231°
2026-04-28 20:09 40.59895 14.87799 1571 ft 171 kts 230°
2026-04-28 20:09 40.59128 14.86581 2252 ft 182 kts 229°
2026-04-28 20:09 40.58244 14.85205 2581 ft 209 kts 229°
2026-04-28 20:09 40.57266 14.83679 2814 ft 231 kts 230°
2026-04-28 20:10 40.56200 14.81975 3094 ft 253 kts 230°
2026-04-28 20:10 40.55038 14.80137 3678 ft 264 kts 229°
2026-04-28 20:10 40.53844 14.78259 4441 ft 270 kts 230°
2026-04-28 20:10 40.52639 14.76341 5254 ft 272 kts 230°
2026-04-28 20:11 40.52594 14.76269 5293 ft 272 kts 230°
2026-04-28 20:11 40.52435 14.76014 5437 ft 270 kts 230°
2026-04-28 20:11 40.51252 14.74113 6435 ft 264 kts 229°
2026-04-28 20:11 40.50065 14.72272 7245 ft 268 kts 229°
2026-04-28 20:12 40.48848 14.70362 7855 ft 277 kts 230°
2026-04-28 20:12 40.47604 14.68401 8591 ft 280 kts 230°
2026-04-28 20:12 40.46353 14.66427 9381 ft 283 kts 230°
2026-04-28 20:12 40.45500 14.65083 9904 ft 284 kts 231°
2026-04-28 20:13 40.43798 14.62384 10524 ft 302 kts 234°
2026-04-28 20:13 40.42974 14.59777 10675 ft 324 kts 263°
2026-04-28 20:13 40.43237 14.56808 11083 ft 336 kts 290°
2026-04-28 20:13 40.44403 14.54132 11726 ft 341 kts 309°
2026-04-28 20:14 40.46149 14.52001 12443 ft 345 kts 321°
2026-04-28 20:14 40.48098 14.50128 13152 ft 349 kts 324°
2026-04-28 20:14 40.50117 14.48313 13870 ft 354 kts 324°
2026-04-28 20:14 40.52164 14.46493 14527 ft 357 kts 324°
2026-04-28 20:15 40.54228 14.44642 15223 ft 361 kts 324°
2026-04-28 20:15 40.56302 14.42759 15909 ft 364 kts 324°
2026-04-28 20:15 40.58389 14.40843 16587 ft 368 kts 324°
2026-04-28 20:15 40.60492 14.38896 17244 ft 372 kts 324°
2026-04-28 20:16 40.62615 14.36919 17908 ft 376 kts 324°
2026-04-28 20:16 40.64761 14.34929 18567 ft 379 kts 324°
2026-04-28 20:16 40.66921 14.32930 19171 ft 381 kts 324°
2026-04-28 20:16 40.69100 14.30914 19764 ft 384 kts 324°
2026-04-28 20:17 40.71297 14.28879 20346 ft 387 kts 324°
2026-04-28 20:17 40.73509 14.26828 20918 ft 390 kts 324°
2026-04-28 20:17 40.75733 14.24763 21489 ft 393 kts 324°
2026-04-28 20:17 40.77980 14.22675 22041 ft 396 kts 324°
2026-04-28 20:18 40.80236 14.20575 22575 ft 399 kts 324°
2026-04-28 20:18 40.81745 14.19170 22936 ft 401 kts 324°
2026-04-28 20:18 40.84809 14.16313 23649 ft 405 kts 324°
2026-04-28 20:18 40.87118 14.14158 24108 ft 407 kts 324°
2026-04-28 20:19 40.89437 14.11993 24582 ft 409 kts 324°
2026-04-28 20:19 40.91764 14.09817 25034 ft 411 kts 324°
2026-04-28 20:19 40.94104 14.07627 25463 ft 413 kts 324°
2026-04-28 20:19 40.96455 14.05425 25887 ft 415 kts 324°
2026-04-28 20:20 40.98817 14.03211 26328 ft 417 kts 324°
2026-04-28 20:20 41.01158 14.01014 26740 ft 419 kts 324°
2026-04-28 20:20 41.03541 13.98777 27155 ft 421 kts 324°
2026-04-28 20:20 41.05934 13.96527 27547 ft 423 kts 324°
2026-04-28 20:21 41.08337 13.94267 27937 ft 425 kts 324°
2026-04-28 20:21 41.10753 13.91992 28317 ft 427 kts 323°
2026-04-28 20:21 41.13179 13.89705 28699 ft 429 kts 323°
2026-04-28 20:21 41.15615 13.87407 29074 ft 431 kts 323°
2026-04-28 20:22 41.18059 13.85099 29444 ft 432 kts 323°
2026-04-28 20:22 41.20514 13.82778 29798 ft 434 kts 323°
2026-04-28 20:22 41.22983 13.80443 30132 ft 436 kts 323°
2026-04-28 20:22 41.25455 13.78102 30414 ft 438 kts 323°
2026-04-28 20:23 41.27937 13.75750 30724 ft 438 kts 323°
2026-04-28 20:23 41.30415 13.73399 31141 ft 436 kts 323°
2026-04-28 20:23 41.32877 13.71062 31590 ft 433 kts 323°
2026-04-28 20:23 41.34535 13.69486 31871 ft 432 kts 323°
2026-04-28 20:24 41.36952 13.67188 32081 ft 435 kts 323°
2026-04-28 20:24 41.41895 13.62478 32069 ft 436 kts 323°
2026-04-28 20:25 41.46787 13.57811 32079 ft 430 kts 323°
2026-04-28 20:25 41.51654 13.53157 32093 ft 431 kts 323°
2026-04-28 20:26 41.56535 13.48481 32088 ft 432 kts 323°
2026-04-28 20:26 41.61414 13.43798 32090 ft 432 kts 323°
2026-04-28 20:27 41.66302 13.39098 32092 ft 433 kts 323°
2026-04-28 20:27 41.71203 13.34376 32393 ft 434 kts 323°
2026-04-28 20:27 41.73647 13.32018 32843 ft 431 kts 323°
2026-04-28 20:28 41.76070 13.29679 33304 ft 428 kts 323°
2026-04-28 20:28 41.78471 13.27359 33737 ft 425 kts 323°
2026-04-28 20:28 41.80864 13.25044 34101 ft 424 kts 323°
2026-04-28 20:28 41.83253 13.22730 34369 ft 424 kts 322°
2026-04-28 20:29 41.85643 13.20413 34634 ft 424 kts 322°
2026-04-28 20:29 41.88030 13.18096 34913 ft 423 kts 322°
2026-04-28 20:29 41.90381 13.15812 35209 ft 422 kts 322°
2026-04-28 20:29 41.92788 13.13473 35492 ft 421 kts 322°
2026-04-28 20:30 41.95158 13.11167 35751 ft 421 kts 322°
2026-04-28 20:30 41.97527 13.08859 36020 ft 420 kts 322°
2026-04-28 20:30 41.99861 13.06584 36283 ft 420 kts 322°
2026-04-28 20:30 42.02223 13.04279 36539 ft 419 kts 321°
2026-04-28 20:31 42.04583 13.01974 36808 ft 419 kts 321°
2026-04-28 20:31 42.06937 12.99673 37071 ft 418 kts 321°
2026-04-28 20:31 42.09289 12.97371 37273 ft 418 kts 321°
2026-04-28 20:31 42.11637 12.95072 37487 ft 418 kts 321°
2026-04-28 20:32 42.13986 12.92769 37729 ft 417 kts 321°
2026-04-28 20:32 42.16335 12.90464 37965 ft 416 kts 321°
2026-04-28 20:32 42.18674 12.88166 38075 ft 418 kts 321°
2026-04-28 20:33 42.23397 12.83520 38083 ft 419 kts 321°
2026-04-28 20:33 42.28085 12.78902 38068 ft 415 kts 321°
2026-04-28 20:34 42.32720 12.74327 38058 ft 411 kts 321°
2026-04-28 20:34 42.37326 12.69772 38077 ft 409 kts 321°
2026-04-28 20:35 42.41917 12.65220 38077 ft 410 kts 321°
2026-04-28 20:35 42.46516 12.60653 38089 ft 410 kts 321°
2026-04-28 20:36 42.51130 12.56063 38084 ft 412 kts 321°
2026-04-28 20:36 42.55761 12.51448 38077 ft 414 kts 321°
2026-04-28 20:37 42.60417 12.46799 38081 ft 416 kts 321°
2026-04-28 20:37 42.65095 12.42120 38077 ft 418 kts 321°
2026-04-28 20:38 42.69786 12.37419 38075 ft 420 kts 321°
2026-04-28 20:38 42.74486 12.32700 38070 ft 420 kts 321°
2026-04-28 20:39 42.79191 12.27967 38080 ft 420 kts 321°
2026-04-28 20:39 42.83889 12.23231 38076 ft 420 kts 321°
2026-04-28 20:40 42.88574 12.18499 38082 ft 419 kts 320°
2026-04-28 20:40 42.93245 12.13772 38072 ft 417 kts 320°
2026-04-28 20:41 42.97896 12.09058 38082 ft 416 kts 320°
2026-04-28 20:41 43.02530 12.04350 38081 ft 414 kts 320°
2026-04-28 20:42 43.07146 11.99652 38079 ft 413 kts 320°
2026-04-28 20:42 43.11752 11.94954 38079 ft 413 kts 320°
2026-04-28 20:43 43.16351 11.90255 38073 ft 412 kts 320°
2026-04-28 20:43 43.20946 11.85551 38080 ft 412 kts 320°
2026-04-28 20:44 43.25510 11.80870 38076 ft 413 kts 320°
2026-04-28 20:44 43.30106 11.76146 38083 ft 413 kts 320°
2026-04-28 20:45 43.34702 11.71414 38074 ft 413 kts 320°
2026-04-28 20:45 43.39306 11.66664 38069 ft 414 kts 320°
2026-04-28 20:46 43.43917 11.61898 38075 ft 415 kts 320°
2026-04-28 20:46 43.48536 11.57114 38070 ft 416 kts 320°
2026-04-28 20:47 43.53155 11.52320 38072 ft 416 kts 320°
2026-04-28 20:47 43.57777 11.47515 38069 ft 416 kts 320°
2026-04-28 20:48 43.62397 11.42702 38055 ft 416 kts 320°
2026-04-28 20:48 43.67009 11.37888 38064 ft 416 kts 320°
2026-04-28 20:48 43.69326 11.35464 37686 ft 422 kts 320°
2026-04-28 20:49 43.71655 11.33027 37362 ft 417 kts 320°
2026-04-28 20:49 43.73953 11.30621 36921 ft 412 kts 320°
2026-04-28 20:49 43.76225 11.28241 36549 ft 408 kts 320°
2026-04-28 20:49 43.78473 11.25882 36141 ft 403 kts 320°
2026-04-28 20:50 43.80697 11.23546 35750 ft 400 kts 320°
2026-04-28 20:50 43.82901 11.21228 35350 ft 396 kts 320°
2026-04-28 20:50 43.85086 11.18927 34970 ft 393 kts 320°
2026-04-28 20:50 43.87254 11.16643 34587 ft 390 kts 320°
2026-04-28 20:51 43.89405 11.14374 34207 ft 387 kts 320°
2026-04-28 20:51 43.91539 11.12120 33801 ft 384 kts 320°
2026-04-28 20:51 43.93655 11.09884 33385 ft 381 kts 320°
2026-04-28 20:51 43.95050 11.08409 33121 ft 379 kts 320°
2026-04-28 20:52 43.97841 11.05455 32608 ft 375 kts 320°
2026-04-28 20:52 43.99911 11.03263 32237 ft 373 kts 320°
2026-04-28 20:52 44.01965 11.01085 31867 ft 370 kts 320°
2026-04-28 20:52 44.04051 10.99012 31416 ft 371 kts 323°
2026-04-28 20:53 44.08410 10.95209 30623 ft 368 kts 325°
2026-04-28 20:53 44.10587 10.93348 30276 ft 366 kts 325°
2026-04-28 20:53 44.12748 10.91484 29879 ft 364 kts 325°
2026-04-28 20:54 44.14890 10.89620 29493 ft 362 kts 324°
2026-04-28 20:54 44.17014 10.87760 29106 ft 358 kts 324°
2026-04-28 20:54 44.19105 10.85922 28752 ft 355 kts 324°
2026-04-28 20:54 44.21181 10.84095 28389 ft 351 kts 324°
2026-04-28 20:55 44.23232 10.82288 28037 ft 347 kts 324°
2026-04-28 20:55 44.25268 10.80492 27669 ft 345 kts 324°
2026-04-28 20:55 44.27293 10.78696 27231 ft 345 kts 323°
2026-04-28 20:55 44.29282 10.76927 26889 ft 342 kts 324°
2026-04-28 20:56 44.31278 10.75149 26523 ft 340 kts 324°
2026-04-28 20:56 44.33263 10.73379 26180 ft 337 kts 324°
2026-04-28 20:56 44.35237 10.71618 25833 ft 335 kts 323°
2026-04-28 20:56 44.37193 10.69873 25494 ft 333 kts 323°
2026-04-28 20:57 44.39140 10.68133 25156 ft 331 kts 323°
2026-04-28 20:57 44.41074 10.66403 24816 ft 329 kts 323°
2026-04-28 20:57 44.42996 10.64684 24499 ft 327 kts 324°
2026-04-28 20:57 44.44908 10.62971 24156 ft 326 kts 324°
2026-04-28 20:58 44.46811 10.61265 23827 ft 324 kts 324°
2026-04-28 20:58 44.48705 10.59566 23462 ft 323 kts 324°
2026-04-28 20:58 44.50591 10.57873 23090 ft 321 kts 324°
2026-04-28 20:58 44.52466 10.56189 22728 ft 319 kts 324°
2026-04-28 20:59 44.54327 10.54517 22392 ft 316 kts 324°
2026-04-28 20:59 44.56174 10.52856 22060 ft 314 kts 324°
2026-04-28 20:59 44.58008 10.51204 21725 ft 312 kts 324°
2026-04-28 20:59 44.59831 10.49562 21400 ft 310 kts 324°
2026-04-28 21:00 44.61640 10.47931 21079 ft 308 kts 324°
2026-04-28 21:00 44.63440 10.46306 20764 ft 307 kts 324°
2026-04-28 21:00 44.65230 10.44690 20447 ft 305 kts 324°
2026-04-28 21:00 44.67011 10.43080 20131 ft 303 kts 324°
2026-04-28 21:01 44.68777 10.41482 19819 ft 302 kts 324°
2026-04-28 21:01 44.70540 10.39887 19510 ft 300 kts 324°
2026-04-28 21:01 44.72292 10.38300 19196 ft 299 kts 324°
2026-04-28 21:01 44.74038 10.36716 18888 ft 298 kts 324°
2026-04-28 21:02 44.75779 10.35137 18576 ft 297 kts 324°
2026-04-28 21:02 44.77513 10.33563 18266 ft 296 kts 324°
2026-04-28 21:02 44.79243 10.31992 17915 ft 295 kts 324°
2026-04-28 21:02 44.80965 10.30427 17581 ft 294 kts 324°
2026-04-28 21:03 44.82680 10.28871 17272 ft 292 kts 324°
2026-04-28 21:03 44.84397 10.27346 16943 ft 292 kts 325°
2026-04-28 21:03 44.85978 10.25953 16651 ft 290 kts 325°
2026-04-28 21:03 44.87665 10.24465 16347 ft 289 kts 325°
2026-04-28 21:04 44.89365 10.22965 16046 ft 288 kts 325°
2026-04-28 21:04 44.91053 10.21473 15740 ft 286 kts 325°
2026-04-28 21:04 44.92742 10.19977 15447 ft 286 kts 325°
2026-04-28 21:04 44.94433 10.18478 15150 ft 289 kts 325°
2026-04-28 21:05 44.96150 10.16953 14850 ft 295 kts 325°
2026-04-28 21:05 44.97903 10.15395 14545 ft 301 kts 326°
2026-04-28 21:05 44.99682 10.13814 14218 ft 302 kts 326°
2026-04-28 21:05 45.01453 10.12240 14017 ft 297 kts 326°
2026-04-28 21:06 45.03183 10.10702 13855 ft 290 kts 326°
2026-04-28 21:06 45.04872 10.09199 13684 ft 284 kts 326°
2026-04-28 21:06 45.06539 10.07709 13364 ft 283 kts 326°
2026-04-28 21:06 45.08198 10.06222 13076 ft 281 kts 326°
2026-04-28 21:07 45.09846 10.04744 12789 ft 280 kts 326°
2026-04-28 21:07 45.10934 10.03768 12598 ft 279 kts 326°
2026-04-28 21:07 45.13115 10.01809 12215 ft 277 kts 326°
2026-04-28 21:07 45.14737 10.00352 11915 ft 275 kts 326°
2026-04-28 21:08 45.16352 9.98900 11650 ft 274 kts 326°
2026-04-28 21:08 45.17962 9.97452 11373 ft 273 kts 326°
2026-04-28 21:08 45.19562 9.96013 11142 ft 270 kts 326°
2026-04-28 21:08 45.21123 9.94608 11025 ft 263 kts 326°
2026-04-28 21:09 45.22690 9.93338 10875 ft 258 kts 340°
2026-04-28 21:09 45.24455 9.93009 10656 ft 256 kts
2026-04-28 21:09 45.26230 9.93186 10420 ft 255 kts
2026-04-28 21:09 45.27971 9.93626 10145 ft 255 kts 23°
2026-04-28 21:10 45.29383 9.95096 9902 ft 252 kts 53°
2026-04-28 21:10 45.30141 9.97266 9649 ft 249 kts 78°
2026-04-28 21:10 45.30390 9.99678 9398 ft 246 kts 86°
2026-04-28 21:10 45.30485 10.01310 9218 ft 246 kts 86°
2026-04-28 21:11 45.30625 10.03723 8959 ft 245 kts 79°
2026-04-28 21:11 45.31487 10.06616 8951 ft 243 kts 65°
2026-04-28 21:11 45.32233 10.08841 8972 ft 254 kts 65°
2026-04-28 21:11 45.32988 10.11143 8996 ft 259 kts 65°
2026-04-28 21:12 45.33897 10.13334 8965 ft 257 kts 49°
2026-04-28 21:12 45.35195 10.15055 8833 ft 259 kts 30°
2026-04-28 21:12 45.36354 10.15613 8528 ft 263 kts
2026-04-28 21:12 45.38110 10.15170 8255 ft 259 kts 332°
2026-04-28 21:13 45.39526 10.13656 8035 ft 253 kts 312°
2026-04-28 21:13 45.40683 10.11775 7805 ft 251 kts 309°
2026-04-28 21:13 45.41795 10.09881 7567 ft 249 kts 309°
2026-04-28 21:13 45.42889 10.08022 7341 ft 247 kts 309°
2026-04-28 21:14 45.44007 10.06137 7119 ft 245 kts 310°
2026-04-28 21:14 45.45109 10.04299 6900 ft 243 kts 310°
2026-04-28 21:14 45.46205 10.02478 6684 ft 242 kts 310°
2026-04-28 21:14 45.47297 10.00666 6472 ft 240 kts 310°
2026-04-28 21:15 45.48385 9.98862 6245 ft 239 kts 310°
2026-04-28 21:15 45.49513 9.97132 6004 ft 238 kts 323°
2026-04-28 21:15 45.51030 9.96289 5739 ft 236 kts 353°
2026-04-28 21:15 45.52661 9.96137 5495 ft 236 kts 359°
2026-04-28 21:16 45.54286 9.96090 5220 ft 237 kts 359°
2026-04-28 21:16 45.55933 9.96039 4939 ft 238 kts 359°
2026-04-28 21:16 45.57591 9.95982 4652 ft 239 kts 359°
2026-04-28 21:16 45.59257 9.95910 4357 ft 240 kts 359°
2026-04-28 21:17 45.60929 9.95798 4066 ft 241 kts 351°
2026-04-28 21:17 45.62395 9.94764 3873 ft 236 kts 312°
2026-04-28 21:17 45.63078 9.92723 3614 ft 227 kts 276°
2026-04-28 21:17 45.63222 9.90536 3326 ft 216 kts 278°
2026-04-28 21:18 45.63506 9.88480 3052 ft 206 kts 283°
2026-04-28 21:18 45.63845 9.86550 2782 ft 196 kts 284°
2026-04-28 21:18 45.64184 9.84718 2509 ft 184 kts 284°
2026-04-28 21:18 45.64500 9.83017 2288 ft 170 kts 284°
2026-04-28 21:19 45.64793 9.81431 2092 ft 160 kts 285°
2026-04-28 21:19 45.65076 9.79902 1874 ft 161 kts 285°
2026-04-28 21:19 45.65359 9.78376 1674 ft 157 kts 286°
2026-04-28 21:19 45.65640 9.76862 1447 ft 157 kts 285°
2026-04-28 21:20 45.65908 9.75355 1238 ft 157 kts 286°
2026-04-28 21:20 45.66188 9.73849 1024 ft 156 kts 287°
2026-04-28 21:20 45.66472 9.72358 825 ft 154 kts 286°
2026-04-28 21:20 45.66734 9.70955 787 ft 131 kts 284°
2026-04-28 21:21 45.66914 9.69997 786 ft 69 kts 285°
2026-04-28 21:21 45.66991 9.69586 786 ft 31 kts 284°
2026-04-28 21:21 45.67044 9.69298 786 ft 29 kts 285°
2026-04-28 21:21 45.67041 9.69028 786 ft 27 kts 233°
2026-04-28 21:22 45.66909 9.69051 786 ft 20 kts 110°
2026-04-28 21:22 45.66882 9.69246 786 ft 20 kts 106°
2026-04-28 21:22 45.66849 9.69433 786 ft 19 kts 105°
2026-04-28 21:22 45.66815 9.69612 786 ft 18 kts 105°
2026-04-28 21:23 45.66783 9.69786 786 ft 13 kts 104°
2026-04-28 21:23 45.66752 9.69826 786 ft 7 kts 180°
2026-04-28 21:23 45.66707 9.69809 786 ft 7 kts 194°
2026-04-28 21:23 45.66691 9.69803 786 ft 0 kts 195°
2026-04-28 21:24 45.66686 9.69801 786 ft 1 kts 195°
2026-04-28 21:24 45.66684 9.69800 786 ft 0 kts 195°